Time,TemperatureF,DewpointF,PressureIn,WindDirection,WindDirectionDegrees,WindSpeedMPH,WindSpeedGustMPH,Humidity,HourlyPrecipIn,Conditions,Clouds,dailyrainin,SolarRadiationWatts/m^2,SoftwareType,DateUTC
2013-04-12 00:00:00,34.1,33.1,29.60,ENE,57,3.0,4.0,96,0.02,,---,0.00,0.00,VWS V14.01,2013-04-12 05:00:00,
2013-04-12 00:05:00,34.0,33.0,29.60,NE,43,4.0,7.0,96,0.02,,---,0.00,0.00,VWS V14.01,2013-04-12 05:05:00,
2013-04-12 00:10:00,33.9,32.9,29.60,ENE,71,2.0,10.0,96,0.02,,---,0.00,0.00,VWS V14.01,2013-04-12 05:10:00,
2013-04-12 00:15:00,33.8,32.8,29.60,ENE,77,3.0,10.0,96,0.02,,---,0.00,0.00,VWS V14.01,2013-04-12 05:15:00,
2013-04-12 00:20:00,33.7,32.7,29.60,NE,50,2.0,10.0,96,0.02,,---,0.00,0.00,VWS V14.01,2013-04-12 05:20:00,
2013-04-12 00:25:00,33.7,32.7,29.60,ENE,66,2.0,10.0,96,0.02,,---,0.00,0.00,VWS V14.01,2013-04-12 05:25:00,
2013-04-12 00:30:00,33.7,32.7,29.60,NE,55,4.0,10.0,96,0.02,,---,0.00,0.00,VWS V14.01,2013-04-12 05:30:00,
2013-04-12 00:35:00,33.7,32.7,29.60,ENE,69,1.0,10.0,96,0.02,,---,0.00,0.00,VWS V14.01,2013-04-12 05:35:00,
2013-04-12 00:40:00,33.7,32.7,29.60,NE,50,3.0,10.0,96,0.02,,---,0.00,0.00,VWS V14.01,2013-04-12 05:40:00,
2013-04-12 00:45:00,33.7,32.7,29.60,NE,49,2.0,10.0,96,0.02,,---,0.00,0.00,VWS V14.01,2013-04-12 05:45:00,
2013-04-12 00:50:00,33.7,32.7,29.60,NE,42,3.0,10.0,96,0.02,,---,0.00,0.00,VWS V14.01,2013-04-12 05:50:00,
2013-04-12 00:55:00,33.7,32.7,29.59,ENE,59,2.0,10.0,96,0.02,,---,0.00,0.00,VWS V14.01,2013-04-12 05:55:00,
2013-04-12 01:00:00,33.7,32.7,29.60,NE,39,2.0,4.0,96,0.00,,---,0.00,0.00,VWS V14.01,2013-04-12 06:00:00,
2013-04-12 01:05:00,33.7,32.7,29.60,ENE,59,2.0,4.0,96,0.00,,---,0.00,0.00,VWS V14.01,2013-04-12 06:05:00,
2013-04-12 01:10:00,33.8,32.8,29.59,NE,51,3.0,5.0,96,0.00,,---,0.00,0.00,VWS V14.01,2013-04-12 06:10:00,
2013-04-12 01:15:00,33.8,32.8,29.59,NE,38,3.0,5.0,96,0.00,,---,0.00,0.00,VWS V14.01,2013-04-12 06:15:00,
2013-04-12 01:20:00,33.7,32.7,29.59,NE,44,3.0,5.0,96,0.01,,---,0.01,0.00,VWS V14.01,2013-04-12 06:20:00,
2013-04-12 01:25:00,33.7,32.7,29.59,NE,56,2.0,5.0,96,0.01,,---,0.01,0.00,VWS V14.01,2013-04-12 06:25:00,
2013-04-12 01:30:00,33.7,32.7,29.58,East,81,3.0,5.0,96,0.01,,---,0.01,0.00,VWS V14.01,2013-04-12 06:30:00,
2013-04-12 01:35:00,33.7,32.7,29.58,NE,49,5.0,10.0,96,0.01,,---,0.01,0.00,VWS V14.01,2013-04-12 06:35:00,
2013-04-12 01:40:00,33.7,32.7,29.58,NE,54,4.0,11.0,96,0.01,,---,0.01,0.00,VWS V14.01,2013-04-12 06:40:00,
2013-04-12 01:45:00,33.7,32.7,29.58,NE,53,3.0,11.0,96,0.01,,---,0.01,0.00,VWS V14.01,2013-04-12 06:45:00,
2013-04-12 01:50:00,33.7,32.7,29.57,ENE,71,4.0,11.0,96,0.01,,---,0.01,0.00,VWS V14.01,2013-04-12 06:50:00,
2013-04-12 01:55:00,33.7,32.7,29.58,ENE,63,2.0,11.0,96,0.01,,---,0.01,0.00,VWS V14.01,2013-04-12 06:55:00,
2013-04-12 02:00:00,33.7,32.7,29.57,East,81,3.0,5.0,96,0.01,,---,0.01,0.00,VWS V14.01,2013-04-12 07:00:00,
2013-04-12 02:05:00,33.6,32.6,29.57,NE,40,3.0,9.0,96,0.01,,---,0.01,0.00,VWS V14.01,2013-04-12 07:05:00,
2013-04-12 02:10:00,33.6,32.6,29.57,ENE,61,5.0,9.0,96,0.01,,---,0.01,0.00,VWS V14.01,2013-04-12 07:10:00,
2013-04-12 02:15:00,33.6,32.6,29.57,NE,42,2.0,10.0,96,0.01,,---,0.01,0.00,VWS V14.01,2013-04-12 07:15:00,
2013-04-12 02:20:00,33.6,32.6,29.57,NE,49,5.0,10.0,96,0.01,,---,0.01,0.00,VWS V14.01,2013-04-12 07:20:00,
2013-04-12 02:25:00,33.7,32.7,29.57,NE,42,2.0,10.0,96,0.01,,---,0.01,0.00,VWS V14.01,2013-04-12 07:25:00,
2013-04-12 02:30:00,33.6,32.6,29.57,ENE,67,3.0,10.0,96,0.01,,---,0.01,0.00,VWS V14.01,2013-04-12 07:30:00,
2013-04-12 02:35:00,33.6,32.6,29.57,NE,56,2.0,10.0,96,0.01,,---,0.01,0.00,VWS V14.01,2013-04-12 07:35:00,
2013-04-12 02:40:00,33.6,32.6,29.57,ENE,68,3.0,10.0,96,0.01,,---,0.01,0.00,VWS V14.01,2013-04-12 07:40:00,
2013-04-12 02:45:00,33.6,32.6,29.57,NE,50,3.0,10.0,96,0.01,,---,0.01,0.00,VWS V14.01,2013-04-12 07:45:00,
2013-04-12 02:50:00,33.5,32.5,29.56,NE,51,3.0,10.0,96,0.01,,---,0.01,0.00,VWS V14.01,2013-04-12 07:50:00,
2013-04-12 02:55:00,33.5,32.5,29.56,ENE,58,1.0,10.0,96,0.01,,---,0.01,0.00,VWS V14.01,2013-04-12 07:55:00,
2013-04-12 03:00:00,33.5,32.5,29.56,ENE,63,2.0,3.0,96,0.00,,---,0.01,0.00,VWS V14.01,2013-04-12 08:00:00,
2013-04-12 03:05:00,33.5,32.5,29.56,ENE,71,3.0,6.0,96,0.00,,---,0.01,0.00,VWS V14.01,2013-04-12 08:05:00,
2013-04-12 03:10:00,33.5,32.5,29.56,ENE,57,3.0,6.0,96,0.00,,---,0.01,0.00,VWS V14.01,2013-04-12 08:10:00,
2013-04-12 03:15:00,33.4,32.4,29.56,NE,44,0.0,6.0,96,0.00,,---,0.01,0.00,VWS V14.01,2013-04-12 08:15:00,
2013-04-12 03:20:00,33.4,32.4,29.56,NE,38,3.0,6.0,96,0.00,,---,0.01,0.00,VWS V14.01,2013-04-12 08:20:00,
2013-04-12 03:25:00,33.4,32.4,29.56,NE,54,2.0,6.0,96,0.00,,---,0.01,0.00,VWS V14.01,2013-04-12 08:25:00,
2013-04-12 03:30:00,33.4,32.4,29.56,NE,54,0.0,6.0,96,0.00,,---,0.01,0.00,VWS V14.01,2013-04-12 08:30:00,
2013-04-12 03:35:00,33.4,32.4,29.56,ENE,71,2.0,6.0,96,0.00,,---,0.01,0.00,VWS V14.01,2013-04-12 08:35:00,
2013-04-12 03:40:00,33.4,32.4,29.56,ENE,71,2.0,6.0,96,0.00,,---,0.01,0.00,VWS V14.01,2013-04-12 08:40:00,
2013-04-12 03:45:00,33.4,32.4,29.56,ENE,71,1.0,6.0,96,0.00,,---,0.01,0.00,VWS V14.01,2013-04-12 08:45:00,
2013-04-12 03:50:00,33.4,32.4,29.56,ENE,71,1.0,6.0,96,0.00,,---,0.01,0.00,VWS V14.01,2013-04-12 08:50:00,
2013-04-12 03:55:00,33.4,32.4,29.55,ENE,71,0.0,6.0,96,0.00,,---,0.01,0.00,VWS V14.01,2013-04-12 08:55:00,
2013-04-12 04:00:00,33.4,32.4,29.55,ENE,71,0.0,0.0,96,0.00,,---,0.01,0.00,VWS V14.01,2013-04-12 09:00:00,
2013-04-12 04:05:00,33.4,32.4,29.55,ENE,71,0.0,1.0,96,0.00,,---,0.01,0.00,VWS V14.01,2013-04-12 09:05:00,
2013-04-12 04:10:00,33.4,32.4,29.55,ENE,71,0.0,1.0,96,0.00,,---,0.01,0.00,VWS V14.01,2013-04-12 09:10:00,
2013-04-12 04:15:00,33.4,32.4,29.55,ENE,71,1.0,1.0,96,0.00,,---,0.01,0.00,VWS V14.01,2013-04-12 09:15:00,
2013-04-12 04:20:00,33.4,32.6,29.55,ENE,71,0.0,2.0,97,0.00,,---,0.01,0.00,VWS V14.01,2013-04-12 09:20:00,
2013-04-12 04:25:00,33.4,32.6,29.55,ENE,71,0.0,2.0,97,0.00,,---,0.01,0.00,VWS V14.01,2013-04-12 09:25:00,
2013-04-12 04:30:00,33.4,32.6,29.55,ENE,71,0.0,2.0,97,0.00,,---,0.01,0.00,VWS V14.01,2013-04-12 09:30:00,
2013-04-12 04:35:00,33.4,32.6,29.55,ENE,71,0.0,2.0,97,0.00,,---,0.01,0.00,VWS V14.01,2013-04-12 09:35:00,
2013-04-12 04:40:00,33.4,32.6,29.55,ENE,71,1.0,2.0,97,0.00,,---,0.01,0.00,VWS V14.01,2013-04-12 09:40:00,
2013-04-12 04:45:00,33.4,32.6,29.55,ENE,71,0.0,2.0,97,0.00,,---,0.01,0.00,VWS V14.01,2013-04-12 09:45:00,
2013-04-12 04:50:00,33.4,32.6,29.55,ENE,71,0.0,2.0,97,0.00,,---,0.01,0.00,VWS V14.01,2013-04-12 09:50:00,
2013-04-12 04:55:00,33.3,32.5,29.55,ENE,71,0.0,2.0,97,0.00,,---,0.01,0.00,VWS V14.01,2013-04-12 09:55:00,
2013-04-12 05:00:00,33.3,32.5,29.55,ENE,71,0.0,1.0,97,0.00,,---,0.01,0.00,VWS V14.01,2013-04-12 10:00:00,
2013-04-12 05:05:00,33.3,32.5,29.55,ENE,71,0.0,1.0,97,0.00,,---,0.01,0.00,VWS V14.01,2013-04-12 10:05:00,
2013-04-12 05:10:00,33.3,32.5,29.55,ENE,71,1.0,1.0,97,0.00,,---,0.01,0.00,VWS V14.01,2013-04-12 10:10:00,
2013-04-12 05:15:00,33.3,32.5,29.55,ENE,71,1.0,2.0,97,0.00,,---,0.01,0.00,VWS V14.01,2013-04-12 10:15:00,
2013-04-12 05:20:00,33.3,32.5,29.55,ENE,71,1.0,2.0,97,0.00,,---,0.01,0.00,VWS V14.01,2013-04-12 10:20:00,
2013-04-12 05:25:00,33.3,32.5,29.55,ENE,71,0.0,2.0,97,0.00,,---,0.01,0.00,VWS V14.01,2013-04-12 10:25:00,
2013-04-12 05:30:00,33.2,32.4,29.55,ENE,71,1.0,2.0,97,0.00,,---,0.01,0.00,VWS V14.01,2013-04-12 10:30:00,
2013-04-12 05:35:00,33.3,32.5,29.55,ENE,71,0.0,2.0,97,0.00,,---,0.01,0.00,VWS V14.01,2013-04-12 10:35:00,
2013-04-12 05:40:00,33.2,32.4,29.55,ENE,71,0.0,2.0,97,0.00,,---,0.01,0.00,VWS V14.01,2013-04-12 10:40:00,
2013-04-12 05:45:00,33.2,32.4,29.55,ENE,71,0.0,2.0,97,0.00,,---,0.01,0.00,VWS V14.01,2013-04-12 10:45:00,
2013-04-12 05:50:00,33.2,32.4,29.55,ENE,71,0.0,2.0,97,0.00,,---,0.01,0.00,VWS V14.01,2013-04-12 10:50:00,
2013-04-12 05:55:00,33.2,32.4,29.55,ENE,71,0.0,2.0,97,0.00,,---,0.01,0.00,VWS V14.01,2013-04-12 10:55:00,
2013-04-12 06:00:00,33.1,32.3,29.55,ENE,71,0.0,0.0,97,0.00,,---,0.01,0.00,VWS V14.01,2013-04-12 11:00:00,
2013-04-12 06:05:00,33.1,32.1,29.55,ENE,71,0.0,2.0,96,0.00,,---,0.01,0.00,VWS V14.01,2013-04-12 11:05:00,
2013-04-12 06:10:00,33.1,32.1,29.55,ENE,71,0.0,2.0,96,0.00,,---,0.01,0.00,VWS V14.01,2013-04-12 11:10:00,
2013-04-12 06:15:00,33.1,32.3,29.55,ENE,71,0.0,2.0,97,0.00,,---,0.01,0.00,VWS V14.01,2013-04-12 11:15:00,
2013-04-12 06:20:00,33.0,32.0,29.55,ENE,71,0.0,2.0,96,0.00,,---,0.01,0.00,VWS V14.01,2013-04-12 11:20:00,
2013-04-12 06:25:00,33.0,32.2,29.55,ENE,71,0.0,2.0,97,0.00,,---,0.01,0.00,VWS V14.01,2013-04-12 11:25:00,
2013-04-12 06:30:00,33.0,32.2,29.55,ENE,71,0.0,2.0,97,0.00,,---,0.01,0.00,VWS V14.01,2013-04-12 11:30:00,
2013-04-12 06:35:00,33.0,32.2,29.55,ENE,71,0.0,2.0,97,0.00,,---,0.01,0.00,VWS V14.01,2013-04-12 11:35:00,
2013-04-12 06:40:00,33.0,32.2,29.55,ENE,71,0.0,2.0,97,0.00,,---,0.01,7.00,VWS V14.01,2013-04-12 11:40:00,
2013-04-12 06:45:00,33.0,32.2,29.55,ENE,71,1.0,2.0,97,0.00,,---,0.01,9.00,VWS V14.01,2013-04-12 11:45:00,
2013-04-12 06:50:00,32.9,32.1,29.55,ENE,71,0.0,2.0,97,0.00,,---,0.01,9.00,VWS V14.01,2013-04-12 11:50:00,
2013-04-12 06:55:00,32.9,32.1,29.55,ENE,71,0.0,2.0,97,0.00,,---,0.01,11.00,VWS V14.01,2013-04-12 11:55:00,
2013-04-12 07:00:00,32.9,32.1,29.55,ENE,71,0.0,0.0,97,0.00,,---,0.01,12.00,VWS V14.01,2013-04-12 12:00:00,
2013-04-12 07:05:00,32.9,32.1,29.55,ENE,71,0.0,1.0,97,0.00,,---,0.01,16.00,VWS V14.01,2013-04-12 12:05:00,
2013-04-12 07:10:00,32.9,32.1,29.55,ENE,71,0.0,1.0,97,0.00,,---,0.01,16.00,VWS V14.01,2013-04-12 12:10:00,
2013-04-12 07:15:00,32.9,32.1,29.56,ENE,71,1.0,1.0,97,0.00,,---,0.01,19.00,VWS V14.01,2013-04-12 12:15:00,
2013-04-12 07:20:00,32.9,32.1,29.56,ENE,71,0.0,2.0,97,0.00,,---,0.01,23.00,VWS V14.01,2013-04-12 12:20:00,
2013-04-12 07:25:00,32.9,32.1,29.56,NNE,25,1.0,4.0,97,0.00,,---,0.01,28.00,VWS V14.01,2013-04-12 12:25:00,
2013-04-12 07:30:00,32.9,32.1,29.56,NNE,25,2.0,4.0,97,0.00,,---,0.01,32.00,VWS V14.01,2013-04-12 12:30:00,
2013-04-12 07:35:00,32.9,32.1,29.56,NNE,25,1.0,4.0,97,0.00,,---,0.01,32.00,VWS V14.01,2013-04-12 12:35:00,
2013-04-12 07:40:00,32.9,32.1,29.56,NNE,25,1.0,4.0,97,0.00,,---,0.01,37.00,VWS V14.01,2013-04-12 12:40:00,
2013-04-12 07:45:00,33.0,32.2,29.56,NNE,25,1.0,4.0,97,0.00,,---,0.01,44.00,VWS V14.01,2013-04-12 12:45:00,
2013-04-12 07:50:00,33.0,32.2,29.56,NNE,21,0.0,4.0,97,0.00,,---,0.01,56.00,VWS V14.01,2013-04-12 12:50:00,
2013-04-12 07:55:00,33.0,32.2,29.57,NNE,14,2.0,4.0,97,0.00,,---,0.01,62.00,VWS V14.01,2013-04-12 12:55:00,
2013-04-12 08:00:00,33.0,32.2,29.57,North,11,1.0,3.0,97,0.00,,---,0.01,60.00,VWS V14.01,2013-04-12 13:00:00,
2013-04-12 08:05:00,33.0,32.2,29.57,North,11,0.0,3.0,97,0.01,,---,0.02,69.00,VWS V14.01,2013-04-12 13:05:00,
2013-04-12 08:10:00,33.1,32.3,29.57,North,11,0.0,3.0,97,0.01,,---,0.02,67.00,VWS V14.01,2013-04-12 13:10:00,
2013-04-12 08:15:00,33.2,32.4,29.57,North,11,0.0,3.0,97,0.01,,---,0.02,72.00,VWS V14.01,2013-04-12 13:15:00,
2013-04-12 08:20:00,33.2,32.4,29.57,North,5,1.0,4.0,97,0.01,,---,0.02,79.00,VWS V14.01,2013-04-12 13:20:00,
2013-04-12 08:25:00,33.3,32.5,29.57,North,5,1.0,4.0,97,0.01,,---,0.02,81.00,VWS V14.01,2013-04-12 13:25:00,
2013-04-12 08:30:00,33.3,32.5,29.58,North,5,1.0,4.0,97,0.01,,---,0.02,83.00,VWS V14.01,2013-04-12 13:30:00,
2013-04-12 08:35:00,33.3,32.5,29.58,North,5,2.0,4.0,97,0.01,,---,0.02,88.00,VWS V14.01,2013-04-12 13:35:00,
2013-04-12 08:40:00,33.4,32.6,29.58,North,5,0.0,4.0,97,0.01,,---,0.02,95.00,VWS V14.01,2013-04-12 13:40:00,
2013-04-12 08:45:00,33.5,32.7,29.58,North,5,1.0,4.0,97,0.01,,---,0.02,113.00,VWS V14.01,2013-04-12 13:45:00,
2013-04-12 08:50:00,33.5,32.7,29.58,North,5,0.0,4.0,97,0.01,,---,0.02,107.00,VWS V14.01,2013-04-12 13:50:00,
2013-04-12 08:55:00,33.6,32.8,29.58,NNW,347,1.0,4.0,97,0.01,,---,0.02,123.00,VWS V14.01,2013-04-12 13:55:00,
2013-04-12 09:00:00,33.7,32.9,29.58,NNW,341,2.0,3.0,97,0.01,,---,0.02,121.00,VWS V14.01,2013-04-12 14:00:00,
2013-04-12 09:05:00,33.6,32.8,29.59,NNW,344,1.0,3.0,97,0.01,,---,0.02,134.00,VWS V14.01,2013-04-12 14:05:00,
2013-04-12 09:10:00,33.6,32.8,29.58,NNW,330,1.0,3.0,97,0.01,,---,0.02,144.00,VWS V14.01,2013-04-12 14:10:00,
2013-04-12 09:15:00,33.6,32.8,29.59,NW,318,0.0,5.0,97,0.01,,---,0.02,167.00,VWS V14.01,2013-04-12 14:15:00,
2013-04-12 09:20:00,33.6,32.8,29.59,NNW,328,2.0,5.0,97,0.02,,---,0.03,179.00,VWS V14.01,2013-04-12 14:20:00,
2013-04-12 09:25:00,33.7,32.9,29.59,NW,308,3.0,5.0,97,0.02,,---,0.03,165.00,VWS V14.01,2013-04-12 14:25:00,
2013-04-12 09:30:00,33.8,33.0,29.59,NW,322,3.0,5.0,97,0.02,,---,0.03,172.00,VWS V14.01,2013-04-12 14:30:00,
2013-04-12 09:35:00,33.8,33.0,29.59,NNE,13,1.0,5.0,97,0.02,,---,0.03,193.00,VWS V14.01,2013-04-12 14:35:00,
2013-04-12 09:40:00,34.0,33.2,29.59,NNW,327,2.0,5.0,97,0.02,,---,0.03,216.00,VWS V14.01,2013-04-12 14:40:00,
2013-04-12 09:45:00,34.2,33.4,29.59,NNW,340,3.0,5.0,97,0.02,,---,0.03,202.00,VWS V14.01,2013-04-12 14:45:00,
2013-04-12 09:50:00,34.3,33.5,29.59,NNE,19,1.0,6.0,97,0.02,,---,0.03,218.00,VWS V14.01,2013-04-12 14:50:00,
2013-04-12 09:55:00,34.5,33.7,29.59,North,5,1.0,6.0,97,0.02,,---,0.03,239.00,VWS V14.01,2013-04-12 14:55:00,
2013-04-12 10:00:00,34.8,34.0,29.60,NW,325,3.0,3.0,97,0.01,,---,0.03,211.00,VWS V14.01,2013-04-12 15:00:00,
2013-04-12 10:05:00,35.0,34.2,29.60,NW,317,2.0,4.0,97,0.01,,---,0.03,209.00,VWS V14.01,2013-04-12 15:05:00,
2013-04-12 10:10:00,35.1,34.3,29.60,NW,323,2.0,6.0,97,0.01,,---,0.03,227.00,VWS V14.01,2013-04-12 15:10:00,
2013-04-12 10:15:00,35.2,34.4,29.60,NW,322,2.0,6.0,97,0.01,,---,0.03,209.00,VWS V14.01,2013-04-12 15:15:00,
2013-04-12 10:20:00,35.4,34.6,29.60,NW,313,2.0,6.0,97,0.01,,---,0.03,220.00,VWS V14.01,2013-04-12 15:20:00,
2013-04-12 10:25:00,35.4,34.4,29.61,NNW,348,4.0,6.0,96,0.01,,---,0.03,269.00,VWS V14.01,2013-04-12 15:25:00,
2013-04-12 10:30:00,35.9,34.9,29.61,WNW,302,2.0,6.0,96,0.01,,---,0.03,301.00,VWS V14.01,2013-04-12 15:30:00,
2013-04-12 10:35:00,36.2,35.2,29.61,NNW,344,2.0,6.0,96,0.01,,---,0.03,292.00,VWS V14.01,2013-04-12 15:35:00,
2013-04-12 10:40:00,36.5,35.5,29.61,NNW,333,3.0,6.0,96,0.01,,---,0.03,301.00,VWS V14.01,2013-04-12 15:40:00,
2013-04-12 10:45:00,36.6,35.3,29.61,NNW,330,2.0,6.0,95,0.01,,---,0.03,264.00,VWS V14.01,2013-04-12 15:45:00,
2013-04-12 10:50:00,36.7,35.4,29.61,NNW,329,2.0,6.0,95,0.01,,---,0.03,320.00,VWS V14.01,2013-04-12 15:50:00,
2013-04-12 10:55:00,36.8,35.2,29.61,North,5,3.0,6.0,94,0.01,,---,0.03,302.00,VWS V14.01,2013-04-12 15:55:00,
2013-04-12 11:00:00,36.8,35.0,29.61,NNW,340,1.0,3.0,93,0.00,,---,0.03,336.00,VWS V14.01,2013-04-12 16:00:00,
2013-04-12 11:05:00,37.1,35.3,29.61,NW,315,2.0,3.0,93,0.00,,---,0.03,350.00,VWS V14.01,2013-04-12 16:05:00,
2013-04-12 11:10:00,37.3,35.2,29.62,North,360,4.0,5.0,92,0.00,,---,0.03,329.00,VWS V14.01,2013-04-12 16:10:00,
2013-04-12 11:15:00,37.3,34.9,29.62,West,266,4.0,5.0,91,0.00,,---,0.03,285.00,VWS V14.01,2013-04-12 16:15:00,
2013-04-12 11:20:00,37.5,35.1,29.62,West,269,4.0,5.0,91,0.00,,---,0.03,287.00,VWS V14.01,2013-04-12 16:20:00,
2013-04-12 11:25:00,37.5,34.6,29.62,NNE,13,3.0,5.0,89,0.00,,---,0.03,308.00,VWS V14.01,2013-04-12 16:25:00,
2013-04-12 11:30:00,37.8,34.9,29.62,NNW,334,2.0,5.0,89,0.00,,---,0.03,394.00,VWS V14.01,2013-04-12 16:30:00,
2013-04-12 11:35:00,38.0,34.8,29.62,West,272,3.0,5.0,88,0.00,,---,0.03,334.00,VWS V14.01,2013-04-12 16:35:00,
2013-04-12 11:40:00,38.1,34.6,29.62,NNW,331,1.0,5.0,87,0.00,,---,0.03,302.00,VWS V14.01,2013-04-12 16:40:00,
2013-04-12 11:45:00,38.4,34.9,29.62,NW,321,3.0,5.0,87,0.00,,---,0.03,369.00,VWS V14.01,2013-04-12 16:45:00,
2013-04-12 11:50:00,38.4,34.3,29.62,North,5,1.0,5.0,85,0.00,,---,0.03,394.00,VWS V14.01,2013-04-12 16:50:00,
2013-04-12 11:55:00,38.3,34.2,29.62,WSW,250,2.0,5.0,85,0.00,,---,0.03,244.00,VWS V14.01,2013-04-12 16:55:00,
2013-04-12 12:00:00,38.6,34.8,29.62,West,261,2.0,3.0,86,0.00,,---,0.03,350.00,VWS V14.01,2013-04-12 17:00:00,
2013-04-12 12:05:00,38.9,34.8,29.62,West,271,2.0,4.0,85,0.00,,---,0.03,302.00,VWS V14.01,2013-04-12 17:05:00,
2013-04-12 12:10:00,39.0,34.3,29.62,North,355,3.0,6.0,83,0.00,,---,0.03,244.00,VWS V14.01,2013-04-12 17:10:00,
2013-04-12 12:15:00,38.9,34.5,29.62,North,5,1.0,6.0,84,0.00,,---,0.03,230.00,VWS V14.01,2013-04-12 17:15:00,
2013-04-12 12:20:00,39.0,34.3,29.62,NW,325,3.0,6.0,83,0.00,,---,0.03,392.00,VWS V14.01,2013-04-12 17:20:00,
2013-04-12 12:25:00,39.2,34.8,29.62,West,276,2.0,6.0,84,0.00,,---,0.03,209.00,VWS V14.01,2013-04-12 17:25:00,
2013-04-12 12:30:00,39.0,34.3,29.62,NNW,342,2.0,6.0,83,0.00,,---,0.03,142.00,VWS V14.01,2013-04-12 17:30:00,
2013-04-12 12:35:00,38.8,34.1,29.62,NNE,17,0.0,6.0,83,0.00,,---,0.03,153.00,VWS V14.01,2013-04-12 17:35:00,
2013-04-12 12:40:00,38.8,34.1,29.62,West,273,3.0,6.0,83,0.00,,---,0.03,176.00,VWS V14.01,2013-04-12 17:40:00,
2013-04-12 12:45:00,38.7,34.3,29.63,West,277,1.0,6.0,84,0.00,,---,0.03,190.00,VWS V14.01,2013-04-12 17:45:00,
2013-04-12 12:50:00,38.4,33.7,29.63,NW,323,2.0,6.0,83,0.00,,---,0.03,156.00,VWS V14.01,2013-04-12 17:50:00,
2013-04-12 12:56:00,38.3,33.9,29.64,WNW,296,0.0,6.0,84,0.00,,---,0.03,185.00,VWS V14.01,2013-04-12 17:56:00,
2013-04-12 13:00:00,38.4,34.0,29.64,WSW,258,4.0,6.0,84,0.00,,---,0.03,213.00,VWS V14.01,2013-04-12 18:00:00,
2013-04-12 13:01:00,38.4,34.0,29.64,West,281,2.0,5.0,84,0.00,,---,0.03,214.00,VWS V14.01,2013-04-12 18:01:00,
2013-04-12 13:06:00,38.7,34.3,29.64,SW,233,6.0,6.0,84,0.00,,---,0.03,176.00,VWS V14.01,2013-04-12 18:06:00,
2013-04-12 13:11:00,38.5,33.8,29.64,West,266,5.0,8.0,83,0.00,,---,0.03,167.00,VWS V14.01,2013-04-12 18:11:00,
2013-04-12 13:16:00,38.3,33.6,29.65,SW,225,3.0,8.0,83,0.00,,---,0.03,204.00,VWS V14.01,2013-04-12 18:16:00,
2013-04-12 13:21:00,38.2,33.5,29.65,WSW,253,3.0,8.0,83,0.00,,---,0.03,178.00,VWS V14.01,2013-04-12 18:21:00,
2013-04-12 13:26:00,38.1,33.4,29.65,West,263,5.0,8.0,83,0.00,,---,0.03,165.00,VWS V14.01,2013-04-12 18:26:00,
2013-04-12 14:00:00,38.2,33.8,29.67,WNW,294,6.0,8.0,84,0.00,,---,0.03,118.00,VWS V14.01,2013-04-12 19:00:00,
2013-04-12 14:26:00,37.1,33.0,29.68,WSW,238,4.0,8.0,85,0.00,,---,0.03,95.00,VWS V14.01,2013-04-12 19:26:00,
2013-04-12 14:31:00,37.1,33.3,29.67,NW,323,5.0,8.0,86,0.00,,---,0.03,134.00,VWS V14.01,2013-04-12 19:31:00,
2013-04-12 14:37:00,37.1,33.3,29.68,WSW,250,2.0,8.0,86,0.00,,---,0.03,135.00,VWS V14.01,2013-04-12 19:37:00,
2013-04-12 14:42:00,37.0,32.9,29.68,West,267,4.0,9.0,85,0.00,,---,0.03,176.00,VWS V14.01,2013-04-12 19:42:00,
2013-04-12 14:47:00,37.1,33.3,29.68,West,259,5.0,9.0,86,0.00,,---,0.03,211.00,VWS V14.01,2013-04-12 19:47:00,
2013-04-12 14:52:00,37.3,33.2,29.68,WSW,254,4.0,9.0,85,0.00,,---,0.03,236.00,VWS V14.01,2013-04-12 19:52:00,
2013-04-12 14:57:00,37.4,33.3,29.68,West,268,2.0,9.0,85,0.00,,---,0.03,141.00,VWS V14.01,2013-04-12 19:57:00,
2013-04-12 15:00:00,37.5,33.4,29.68,WNW,285,4.0,9.0,85,0.00,,---,0.03,98.00,VWS V14.01,2013-04-12 20:00:00,
2013-04-12 15:02:00,37.5,33.1,29.69,West,262,6.0,7.0,84,0.00,,---,0.03,74.00,VWS V14.01,2013-04-12 20:02:00,
2013-04-12 15:07:00,37.5,33.4,29.69,WSW,243,4.0,7.0,85,0.00,,---,0.03,84.00,VWS V14.01,2013-04-12 20:07:00,
2013-04-12 15:12:00,37.1,32.7,29.69,West,261,6.0,10.0,84,0.00,,---,0.03,65.00,VWS V14.01,2013-04-12 20:12:00,
2013-04-12 15:17:00,37.0,32.6,29.69,SW,222,4.0,10.0,84,0.00,,---,0.03,72.00,VWS V14.01,2013-04-12 20:17:00,
2013-04-12 15:22:00,36.8,32.7,29.69,NNW,337,3.0,10.0,85,0.00,,---,0.03,72.00,VWS V14.01,2013-04-12 20:22:00,
2013-04-12 15:27:00,36.9,32.8,29.69,West,262,6.0,10.0,85,0.00,,---,0.03,74.00,VWS V14.01,2013-04-12 20:27:00,
2013-04-12 15:32:00,36.8,32.4,29.70,West,263,5.0,10.0,84,0.00,,---,0.03,72.00,VWS V14.01,2013-04-12 20:32:00,
2013-04-12 15:37:00,36.7,32.3,29.70,WSW,246,4.0,10.0,84,0.00,,---,0.03,84.00,VWS V14.01,2013-04-12 20:37:00,
2013-04-12 15:42:00,36.6,32.2,29.70,West,271,3.0,10.0,84,0.00,,---,0.03,104.00,VWS V14.01,2013-04-12 20:42:00,
2013-04-12 15:47:00,36.6,32.2,29.70,West,268,2.0,10.0,84,0.00,,---,0.03,118.00,VWS V14.01,2013-04-12 20:47:00,
2013-04-12 15:52:00,36.8,32.4,29.70,WSW,238,4.0,10.0,84,0.00,,---,0.03,74.00,VWS V14.01,2013-04-12 20:52:00,
2013-04-12 15:57:00,36.8,32.1,29.70,WSW,254,4.0,10.0,83,0.00,,---,0.03,46.00,VWS V14.01,2013-04-12 20:57:00,
2013-04-12 16:00:00,36.7,32.0,29.71,WSW,248,5.0,10.0,83,0.00,,---,0.03,46.00,VWS V14.01,2013-04-12 21:00:00,
2013-04-12 16:02:00,36.6,31.9,29.71,WSW,247,4.0,7.0,83,0.00,,---,0.03,53.00,VWS V14.01,2013-04-12 21:02:00,
2013-04-12 16:07:00,36.6,32.2,29.71,WSW,248,3.0,7.0,84,0.00,,---,0.03,86.00,VWS V14.01,2013-04-12 21:07:00,
2013-04-12 16:12:00,36.5,32.1,29.71,WSW,239,6.0,7.0,84,0.00,,---,0.03,69.00,VWS V14.01,2013-04-12 21:12:00,
2013-04-12 16:17:00,36.4,31.7,29.71,SW,227,3.0,7.0,83,0.00,,---,0.03,49.00,VWS V14.01,2013-04-12 21:17:00,
2013-04-12 16:22:00,36.4,32.0,29.71,SW,236,3.0,7.0,84,0.00,,---,0.03,51.00,VWS V14.01,2013-04-12 21:22:00,
2013-04-12 16:27:00,36.3,31.6,29.71,West,264,2.0,7.0,83,0.00,,---,0.03,44.00,VWS V14.01,2013-04-12 21:27:00,
2013-04-12 16:32:00,36.4,32.0,29.71,West,268,3.0,7.0,84,0.00,,---,0.03,40.00,VWS V14.01,2013-04-12 21:32:00,
2013-04-12 16:37:00,36.4,32.0,29.71,WSW,250,5.0,7.0,84,0.00,,---,0.03,40.00,VWS V14.01,2013-04-12 21:37:00,
2013-04-12 16:42:00,36.3,31.9,29.71,WSW,237,4.0,8.0,84,0.00,,---,0.03,46.00,VWS V14.01,2013-04-12 21:42:00,
2013-04-12 16:47:00,36.2,31.5,29.72,WSW,241,6.0,8.0,83,0.00,,---,0.03,58.00,VWS V14.01,2013-04-12 21:47:00,
2013-04-12 16:52:00,36.1,31.5,29.72,West,277,6.0,8.0,83,0.00,,---,0.03,51.00,VWS V14.01,2013-04-12 21:52:00,
2013-04-12 16:57:00,36.1,31.5,29.72,SW,233,6.0,10.0,83,0.00,,---,0.03,47.00,VWS V14.01,2013-04-12 21:57:00,
2013-04-12 17:00:00,36.0,31.4,29.72,WNW,284,5.0,10.0,83,0.00,,---,0.03,44.00,VWS V14.01,2013-04-12 22:00:00,
2013-04-12 17:02:00,36.0,31.4,29.72,WSW,242,5.0,8.0,83,0.00,,---,0.03,40.00,VWS V14.01,2013-04-12 22:02:00,
2013-04-12 17:07:00,36.0,31.4,29.72,WSW,255,7.0,10.0,83,0.00,,---,0.03,33.00,VWS V14.01,2013-04-12 22:07:00,
2013-04-12 17:12:00,35.9,31.5,29.73,WSW,247,6.0,10.0,84,0.00,,---,0.03,30.00,VWS V14.01,2013-04-12 22:12:00,
2013-04-12 17:17:00,35.7,31.4,29.73,WSW,257,6.0,11.0,84,0.00,,---,0.03,28.00,VWS V14.01,2013-04-12 22:17:00,
2013-04-12 17:22:00,35.6,31.2,29.73,West,265,7.0,11.0,84,0.00,,---,0.03,25.00,VWS V14.01,2013-04-12 22:22:00,
2013-04-12 17:27:00,35.6,31.2,29.74,WSW,250,4.0,11.0,84,0.00,,---,0.03,23.00,VWS V14.01,2013-04-12 22:27:00,
2013-04-12 17:32:00,35.5,31.5,29.74,WSW,246,2.0,11.0,85,0.00,,---,0.03,28.00,VWS V14.01,2013-04-12 22:32:00,
2013-04-12 17:37:00,35.4,31.1,29.74,West,260,5.0,11.0,84,0.00,,---,0.03,35.00,VWS V14.01,2013-04-12 22:37:00,
2013-04-12 17:42:00,35.4,31.1,29.74,WSW,244,5.0,11.0,84,0.00,,---,0.03,26.00,VWS V14.01,2013-04-12 22:42:00,
2013-04-12 17:47:00,35.3,31.0,29.74,WSW,242,3.0,11.0,84,0.00,,---,0.03,35.00,VWS V14.01,2013-04-12 22:47:00,
2013-04-12 17:52:00,35.4,31.1,29.74,SW,223,4.0,11.0,84,0.00,,---,0.03,35.00,VWS V14.01,2013-04-12 22:52:00,
2013-04-12 17:57:00,35.4,31.1,29.75,WSW,239,4.0,11.0,84,0.00,,---,0.03,26.00,VWS V14.01,2013-04-12 22:57:00,
2013-04-12 18:00:00,35.3,31.0,29.75,SW,219,5.0,11.0,84,0.00,,---,0.03,23.00,VWS V14.01,2013-04-12 23:00:00,
2013-04-12 18:02:00,35.3,31.0,29.75,West,262,6.0,9.0,84,0.00,,---,0.03,21.00,VWS V14.01,2013-04-12 23:02:00,
2013-04-12 18:07:00,35.3,30.7,29.75,West,261,5.0,9.0,83,0.00,,---,0.03,19.00,VWS V14.01,2013-04-12 23:07:00,
2013-04-12 18:12:00,35.3,30.7,29.75,WSW,252,4.0,9.0,83,0.00,,---,0.03,19.00,VWS V14.01,2013-04-12 23:12:00,
2013-04-12 18:17:00,35.2,30.6,29.75,West,268,6.0,9.0,83,0.00,,---,0.03,19.00,VWS V14.01,2013-04-12 23:17:00,
2013-04-12 18:22:00,35.2,30.3,29.76,West,263,8.0,10.0,82,0.00,,---,0.03,25.00,VWS V14.01,2013-04-12 23:22:00,
2013-04-12 18:27:00,35.1,30.2,29.76,WSW,240,7.0,11.0,82,0.00,,---,0.03,21.00,VWS V14.01,2013-04-12 23:27:00,
2013-04-12 18:32:00,35.1,30.2,29.76,SW,235,3.0,11.0,82,0.00,,---,0.03,14.00,VWS V14.01,2013-04-12 23:32:00,
2013-04-12 18:37:00,35.0,30.1,29.76,West,271,1.0,11.0,82,0.00,,---,0.03,14.00,VWS V14.01,2013-04-12 23:37:00,
2013-04-12 18:42:00,35.0,30.1,29.76,WSW,241,4.0,11.0,82,0.00,,---,0.03,25.00,VWS V14.01,2013-04-12 23:42:00,
2013-04-12 18:47:00,35.0,30.1,29.76,West,268,3.0,11.0,82,0.00,,---,0.03,21.00,VWS V14.01,2013-04-12 23:47:00,
2013-04-12 18:52:00,35.0,30.1,29.76,West,263,3.0,11.0,82,0.00,,---,0.03,16.00,VWS V14.01,2013-04-12 23:52:00,
2013-04-12 18:57:00,34.9,30.0,29.76,WSW,254,7.0,11.0,82,0.00,,---,0.03,14.00,VWS V14.01,2013-04-12 23:57:00,
2013-04-12 19:00:00,34.9,30.0,29.76,WSW,255,1.0,11.0,82,0.00,,---,0.03,14.00,VWS V14.01,2013-04-13 00:00:00,
2013-04-12 19:02:00,34.9,30.3,29.76,WSW,257,2.0,4.0,83,0.00,,---,0.03,12.00,VWS V14.01,2013-04-13 00:02:00,
2013-04-12 19:07:00,34.8,30.2,29.76,WSW,257,4.0,5.0,83,0.00,,---,0.03,9.00,VWS V14.01,2013-04-13 00:07:00,
2013-04-12 19:12:00,34.8,30.2,29.76,WSW,248,3.0,5.0,83,0.00,,---,0.03,9.00,VWS V14.01,2013-04-13 00:12:00,
2013-04-12 19:17:00,34.7,30.1,29.76,WSW,238,3.0,6.0,83,0.00,,---,0.03,5.00,VWS V14.01,2013-04-13 00:17:00,
2013-04-12 19:22:00,34.7,30.1,29.76,WSW,258,2.0,6.0,83,0.00,,---,0.03,0.00,VWS V14.01,2013-04-13 00:22:00,
2013-04-12 19:27:00,34.7,30.1,29.76,WSW,239,4.0,7.0,83,0.00,,---,0.03,0.00,VWS V14.01,2013-04-13 00:27:00,
2013-04-12 19:32:00,34.6,30.0,29.76,SW,229,2.0,7.0,83,0.00,,---,0.03,0.00,VWS V14.01,2013-04-13 00:32:00,
2013-04-12 19:37:00,34.6,30.0,29.76,WSW,252,5.0,7.0,83,0.00,,---,0.03,0.00,VWS V14.01,2013-04-13 00:37:00,
2013-04-12 19:42:00,34.6,30.0,29.76,West,260,1.0,7.0,83,0.00,,---,0.03,0.00,VWS V14.01,2013-04-13 00:42:00,
2013-04-12 19:47:00,34.6,30.3,29.76,West,269,4.0,7.0,84,0.00,,---,0.03,0.00,VWS V14.01,2013-04-13 00:47:00,
2013-04-12 19:52:00,34.5,30.2,29.76,West,262,2.0,7.0,84,0.00,,---,0.03,0.00,VWS V14.01,2013-04-13 00:52:00,
2013-04-12 19:57:00,34.5,30.2,29.77,WSW,242,3.0,7.0,84,0.00,,---,0.03,0.00,VWS V14.01,2013-04-13 00:57:00,
2013-04-12 20:00:00,34.5,30.2,29.77,WSW,242,1.0,7.0,84,0.00,,---,0.03,0.00,VWS V14.01,2013-04-13 01:00:00,
2013-04-12 20:02:00,34.4,30.1,29.77,WSW,253,1.0,4.0,84,0.00,,---,0.03,0.00,VWS V14.01,2013-04-13 01:02:00,
2013-04-12 20:07:00,34.4,30.1,29.76,SW,234,3.0,5.0,84,0.00,,---,0.03,0.00,VWS V14.01,2013-04-13 01:07:00,
2013-04-12 20:12:00,34.3,30.0,29.77,WSW,244,2.0,5.0,84,0.00,,---,0.03,0.00,VWS V14.01,2013-04-13 01:12:00,
2013-04-12 20:17:00,34.3,30.0,29.77,SW,236,2.0,5.0,84,0.00,,---,0.03,0.00,VWS V14.01,2013-04-13 01:17:00,
2013-04-12 20:22:00,34.3,30.0,29.77,WSW,242,2.0,5.0,84,0.00,,---,0.03,0.00,VWS V14.01,2013-04-13 01:22:00,
2013-04-12 20:27:00,34.2,29.9,29.77,WSW,238,2.0,5.0,84,0.00,,---,0.03,0.00,VWS V14.01,2013-04-13 01:27:00,
2013-04-12 20:32:00,34.2,29.9,29.77,SW,236,2.0,5.0,84,0.00,,---,0.03,0.00,VWS V14.01,2013-04-13 01:32:00,
2013-04-12 20:37:00,34.1,29.8,29.78,WSW,238,4.0,6.0,84,0.00,,---,0.03,0.00,VWS V14.01,2013-04-13 01:37:00,
2013-04-12 20:42:00,34.1,29.8,29.78,West,259,4.0,7.0,84,0.00,,---,0.03,0.00,VWS V14.01,2013-04-13 01:42:00,
2013-04-12 20:47:00,34.1,29.8,29.78,West,260,4.0,7.0,84,0.00,,---,0.03,0.00,VWS V14.01,2013-04-13 01:47:00,
2013-04-12 20:52:00,34.1,29.8,29.78,SW,229,2.0,7.0,84,0.00,,---,0.03,0.00,VWS V14.01,2013-04-13 01:52:00,
2013-04-12 20:57:00,34.1,29.8,29.78,WSW,244,3.0,7.0,84,0.00,,---,0.03,0.00,VWS V14.01,2013-04-13 01:57:00,
2013-04-12 21:00:00,34.0,29.7,29.78,WSW,244,3.0,7.0,84,0.00,,---,0.03,0.00,VWS V14.01,2013-04-13 02:00:00,
2013-04-12 21:02:00,34.0,29.7,29.78,West,261,3.0,5.0,84,0.00,,---,0.03,0.00,VWS V14.01,2013-04-13 02:02:00,
2013-04-12 21:07:00,34.0,29.7,29.78,WSW,242,1.0,7.0,84,0.00,,---,0.03,0.00,VWS V14.01,2013-04-13 02:07:00,
2013-04-12 21:12:00,34.0,29.7,29.79,SW,232,3.0,7.0,84,0.00,,---,0.03,0.00,VWS V14.01,2013-04-13 02:12:00,
2013-04-12 21:17:00,33.9,29.6,29.79,WSW,255,3.0,7.0,84,0.00,,---,0.03,0.00,VWS V14.01,2013-04-13 02:17:00,
2013-04-12 21:22:00,33.9,29.6,29.79,SW,227,2.0,7.0,84,0.00,,---,0.03,0.00,VWS V14.01,2013-04-13 02:22:00,
2013-04-12 21:27:00,33.9,29.9,29.79,SW,227,2.0,7.0,85,0.00,,---,0.03,0.00,VWS V14.01,2013-04-13 02:27:00,
2013-04-12 21:32:00,33.9,29.9,29.79,SW,227,3.0,7.0,85,0.00,,---,0.03,0.00,VWS V14.01,2013-04-13 02:32:00,
2013-04-12 21:37:00,33.8,29.8,29.79,SW,229,3.0,7.0,85,0.00,,---,0.03,0.00,VWS V14.01,2013-04-13 02:37:00,
2013-04-12 21:42:00,33.8,29.8,29.79,SW,227,2.0,7.0,85,0.00,,---,0.03,0.00,VWS V14.01,2013-04-13 02:42:00,
2013-04-12 21:47:00,33.8,29.8,29.79,SW,230,4.0,7.0,85,0.00,,---,0.03,0.00,VWS V14.01,2013-04-13 02:47:00,
2013-04-12 21:52:00,33.8,29.8,29.79,SW,226,4.0,7.0,85,0.00,,---,0.03,0.00,VWS V14.01,2013-04-13 02:52:00,
2013-04-12 21:57:00,33.8,29.8,29.79,SW,229,5.0,8.0,85,0.00,,---,0.03,0.00,VWS V14.01,2013-04-13 02:57:00,
2013-04-12 22:00:00,33.8,29.8,29.79,SW,229,3.0,8.0,85,0.00,,---,0.03,0.00,VWS V14.01,2013-04-13 03:00:00,
2013-04-12 22:02:00,33.8,29.8,29.79,WSW,245,2.0,6.0,85,0.00,,---,0.03,0.00,VWS V14.01,2013-04-13 03:02:00,
2013-04-12 22:07:00,33.8,29.8,29.79,SW,230,6.0,6.0,85,0.00,,---,0.03,0.00,VWS V14.01,2013-04-13 03:07:00,
2013-04-12 22:12:00,33.7,29.7,29.79,SW,236,5.0,7.0,85,0.00,,---,0.03,0.00,VWS V14.01,2013-04-13 03:12:00,
2013-04-12 22:17:00,33.8,29.8,29.79,SW,229,3.0,7.0,85,0.00,,---,0.03,0.00,VWS V14.01,2013-04-13 03:17:00,
2013-04-12 22:23:00,33.7,29.7,29.79,SW,220,4.0,7.0,85,0.00,,---,0.03,0.00,VWS V14.01,2013-04-13 03:23:00,
2013-04-12 22:28:00,33.7,29.7,29.79,SW,229,2.0,7.0,85,0.00,,---,0.03,0.00,VWS V14.01,2013-04-13 03:28:00,
2013-04-12 22:33:00,33.7,29.7,29.79,SW,230,6.0,10.0,85,0.00,,---,0.03,0.00,VWS V14.01,2013-04-13 03:33:00,
2013-04-12 22:38:00,33.7,29.7,29.79,SW,223,4.0,10.0,85,0.00,,---,0.03,0.00,VWS V14.01,2013-04-13 03:38:00,
2013-04-12 22:43:00,33.7,30.0,29.79,SW,220,6.0,10.0,86,0.00,,---,0.03,0.00,VWS V14.01,2013-04-13 03:43:00,
2013-04-12 22:48:00,33.6,29.9,29.79,WSW,244,2.0,10.0,86,0.00,,---,0.03,0.00,VWS V14.01,2013-04-13 03:48:00,
2013-04-12 22:53:00,33.6,29.9,29.79,WSW,244,2.0,10.0,86,0.00,,---,0.03,0.00,VWS V14.01,2013-04-13 03:53:00,
2013-04-12 22:58:00,33.5,29.8,29.79,SW,226,5.0,10.0,86,0.00,,---,0.03,0.00,VWS V14.01,2013-04-13 03:58:00,
2013-04-12 23:00:00,33.5,29.8,29.79,SW,229,5.0,5.0,86,0.00,,---,0.03,0.00,VWS V14.01,2013-04-13 04:00:00,
2013-04-12 23:05:00,33.5,29.8,29.79,SW,229,3.0,6.0,86,0.00,,---,0.03,0.00,VWS V14.01,2013-04-13 04:05:00,
2013-04-12 23:10:00,33.5,29.8,29.79,SW,227,4.0,6.0,86,0.00,,---,0.03,0.00,VWS V14.01,2013-04-13 04:10:00,
2013-04-12 23:15:00,33.5,29.8,29.79,WSW,254,3.0,6.0,86,0.00,,---,0.03,0.00,VWS V14.01,2013-04-13 04:15:00,
2013-04-12 23:20:00,33.5,30.0,29.79,SW,236,4.0,6.0,87,0.00,,---,0.03,0.00,VWS V14.01,2013-04-13 04:20:00,
2013-04-12 23:25:00,33.4,30.0,29.79,SW,229,5.0,6.0,87,0.00,,---,0.03,0.00,VWS V14.01,2013-04-13 04:25:00,
2013-04-12 23:30:00,33.5,30.0,29.79,SW,225,5.0,6.0,87,0.00,,---,0.03,0.00,VWS V14.01,2013-04-13 04:30:00,
2013-04-12 23:35:00,33.5,29.8,29.79,SW,232,1.0,6.0,86,0.00,,---,0.03,0.00,VWS V14.01,2013-04-13 04:35:00,
2013-04-12 23:40:00,33.5,29.8,29.79,SW,230,4.0,6.0,86,0.00,,---,0.03,0.00,VWS V14.01,2013-04-13 04:40:00,
2013-04-12 23:45:00,33.5,29.8,29.79,SW,229,3.0,6.0,86,0.00,,---,0.03,0.00,VWS V14.01,2013-04-13 04:45:00,
2013-04-12 23:50:00,33.5,30.0,29.79,SW,214,3.0,6.0,87,0.00,,---,0.03,0.00,VWS V14.01,2013-04-13 04:50:00,
2013-04-12 23:55:00,33.4,30.0,29.79,SW,219,6.0,7.0,87,0.00,,---,0.03,0.00,VWS V14.01,2013-04-13 04:55:00,